FW4465 Weather Reports


time (UTC)temp
C
wind
direction
speed
KPH
gust
KPH
rain 1hr
cm
rain 24hr
cm
rain mn
cm
humidity
%
barometer
mb
20190821070102 12 164 0.0 1.6 0.00 0.71 0.03 76 1028.7
20190821064617 12 164 0.0 3.2 0.00 0.71 0.03 76 1028.7
20190821063100 12 159 0.0 4.8 0.00 0.71 0.03 76 1028.7
20190821061529 11 126 0.0 0.0 0.00 0.71 0.03 76 1028.6
20190821060041 11 140 0.0 0.0 0.00 0.71 0.03 76 1028.5
20190821054610 11 140 0.0 0.0 0.00 0.71 0.03 76 1028.4
20190821053025 10 140 0.0 0.0 0.00 0.71 0.03 76 1028.4
20190821051520 10 140 0.0 0.0 0.00 0.71 0.03 77 1028.4
20190821050021 10 140 0.0 0.0 0.00 0.71 0.03 77 1028.4
20190821044512 10 140 0.0 0.0 0.00 0.71 0.03 77 1028.3
20190821043026 10 140 0.0 0.0 0.00 0.71 0.03 77 1028.2
20190821041506 10 140 0.0 1.6 0.00 0.71 0.03 77 1028.1
20190821040008 10 140 0.0 0.0 0.00 0.71 0.03 77 1027.8
20190821034503 10 140 0.0 0.0 0.00 0.71 0.03 78 1027.8
20190821033206 10 140 0.0 0.0 0.00 0.71 0.03 78 1027.8
20190821031707 10 140 0.0 0.0 0.00 0.71 0.03 78 1027.8
20190821030148 10 140 0.0 0.0 0.00 0.71 0.03 78 1027.7
20190821024627 10 140 0.0 0.0 0.03 0.71 0.03 78 1027.7
20190821023130 10 140 0.0 0.0 0.03 0.71 0.03 78 1027.7
20190821021643 10 140 0.0 0.0 0.03 0.71 0.03 78 1027.7
20190821020135 11 140 0.0 0.0 0.03 0.71 0.03 78 1027.7
20190821014720 11 140 0.0 0.0 0.00 0.71 0.00 78 1027.7
20190821013240 11 140 0.0 0.0 0.00 0.71 0.00 78 1027.5
20190821011636 11 140 0.0 0.0 0.00 0.71 0.00 78 1027.5
20190821010112 11 140 0.0 0.0 0.00 0.71 0.00 78 1027.5
20190821004653 11 140 0.0 0.0 0.00 0.71 0.00 78 1027.4
20190821003154 11 140 0.0 0.0 0.00 0.71 0.00 78 1027.3
20190821001623 11 140 0.0 0.0 0.00 0.71 0.00 78 1027.3
20190821000125 12 140 0.0 0.0 0.00 0.71 0.00 78 1027.2
20190820234657 12 140 0.0 0.0 0.00 0.71 0.00 78 1027.1
20190820233120 12 140 0.0 0.0 0.00 0.71 0.00 78 1027.2
20190820231613 12 140 0.0 0.0 0.00 0.71 0.00 78 1027.0
20190820230056 12 140 0.0 0.0 0.00 0.71 0.00 78 1027.2
20190820224613 12 140 0.0 0.0 0.00 0.71 0.00 78 1027.4
20190820223145 13 140 0.0 0.0 0.00 0.71 0.00 78 1027.3
20190820221600 13 140 0.0 0.0 0.00 0.71 0.00 78 1027.1
20190820220113 13 140 0.0 0.0 0.00 0.71 0.71 78 1027.0
20190820214555 13 140 0.0 0.0 0.00 0.71 0.71 78 1027.0
20190820213049 13 140 0.0 0.0 0.00 0.71 0.71 78 1026.8
20190820211641 13 140 0.0 0.0 0.00 0.71 0.71 78 1026.8
20190820210053 13 140 0.0 0.0 0.00 0.71 0.71 78 1026.7
20190820204537 13 140 0.0 0.0 0.00 0.71 0.71 78 1026.4
20190820203034 13 140 0.0 0.0 0.00 0.71 0.71 78 1026.5
20190820201525 13 140 0.0 1.6 0.00 0.71 0.71 77 1026.8
20190820200055 13 140 0.0 4.8 0.00 0.71 0.71 77 1026.6
20190820194533 13 202 0.0 0.0 0.00 0.71 0.71 77 1026.4
20190820193109 13 202 0.0 1.6 0.00 0.71 0.71 77 1026.4
20190820191603 13 202 0.0 0.0 0.00 0.71 0.71 78 1026.3
20190820190036 13 202 0.0 0.0 0.00 0.71 0.71 78 1026.2
20190820184527 13 202 0.0 0.0 0.03 0.71 0.71 78 1025.8
20190820183050 13 208 0.0 1.6 0.05 0.71 0.71 78 1025.5
20190820181533 13 292 0.0 1.6 0.08 0.71 0.71 78 1025.5
20190820180013 14 292 0.0 1.6 0.08 0.71 0.71 78 1025.4
20190820174541 14 292 0.0 1.6 0.10 0.69 0.69 79 1025.2
20190820173011 14 292 0.0 0.0 0.08 0.64 0.64 79 1025.0
20190820171527 14 292 0.0 0.0 0.10 0.61 0.61 79 1025.0
20190820170014 14 292 0.0 0.0 0.13 0.61 0.61 79 1024.7
20190820164506 14 292 0.0 0.0 0.15 0.58 0.58 79 1024.5
20190820163419 14 292 0.0 0.0 0.15 0.56 0.56 80 1024.4
20190820161647 14 292 0.0 1.6 0.15 0.51 0.51 80 1024.2
20190820160336 14 292 0.0 1.6 0.15 0.48 0.48 81 1024.3
20190820154741 14 292 0.0 1.6 0.18 0.46 0.46 81 1024.2
20190820153147 14 292 0.0 1.6 0.20 0.43 0.43 81 1024.1
20190820151716 15 292 0.0 1.6 0.20 0.38 0.38 81 1024.0
20190820150129 15 292 0.0 1.6 0.20 0.33 0.33 81 1023.6
20190820144746 15 290 0.0 1.6 0.20 0.28 0.28 81 1023.3
20190820143125 15 292 0.0 3.2 0.15 0.23 0.23 81 1023.2
20190820141639 16 283 0.0 8.0 0.15 0.18 0.18 82 1023.3
20190820140134 16 338 0.0 1.6 0.13 0.15 0.15 82 1023.1
20190820134601 16 298 0.0 4.8 0.05 0.08 0.08 82 1022.9
20190820133123 17 329 0.0 3.2 0.05 0.05 0.05 81 1022.6
20190820131631 17 325 0.0 1.6 0.03 0.03 0.03 80 1022.5
20190820130144 17 325 0.0 0.0 0.03 0.03 0.03 78 1022.0
20190820124658 18 325 0.0 4.8 0.03 0.03 0.03 76 1021.9
20190820123151 18 284 0.0 1.6 0.00 0.00 0.00 72 1021.7
20190820121641 18 283 0.0 4.8 0.00 0.00 0.00 71 1021.7
20190820120104 18 285 0.0 6.4 0.00 0.00 0.00 70 1021.6
20190820114543 18 280 0.0 4.8 0.00 0.00 0.00 72 1021.5
20190820113113 18 292 0.0 4.8 0.00 0.00 0.00 72 1021.5
20190820111602 18 302 0.0 4.8 0.00 0.00 0.00 73 1021.5
20190820110111 18 310 0.0 9.7 0.00 0.00 0.00 73 1021.6
20190820104612 17 298 1.6 12.9 0.00 0.00 0.00 74 1021.5
20190820103104 17 274 0.0 9.7 0.00 0.00 0.00 74 1021.5
20190820101557 17 297 0.0 3.2 0.00 0.00 0.00 74 1021.5
20190820100111 17 271 0.0 6.4 0.00 0.00 0.00 74 1021.5
20190820094546 17 291 0.0 6.4 0.00 0.00 0.00 75 1021.4
20190820093031 17 298 0.0 4.8 0.00 0.00 0.00 75 1021.2
20190820091526 17 317 0.0 1.6 0.00 0.00 0.00 76 1021.2
20190820090040 17 306 0.0 1.6 0.00 0.00 0.00 76 1021.0
20190820084604 17 303 0.0 6.4 0.00 0.00 0.00 75 1021.2
20190820083052 17 272 0.0 3.2 0.00 0.00 0.00 77 1021.2
20190820081518 17 281 0.0 0.0 0.00 0.00 0.00 77 1021.0
20190820080026 16 281 0.0 3.2 0.00 0.00 0.00 78 1020.8
20190820074521 16 281 0.0 3.2 0.00 0.00 0.00 78 1020.7
20190820073055 16 306 0.0 1.6 0.00 0.00 0.00 79 1020.6
20190820071519 16 292 0.0 0.0 0.00 0.00 0.00 79 1020.9